Powrót do katalogu

DELTA 1 DEB

AktywnySSO
NORAD 37655·DEBRIS·🇺🇸 United States

Wystrzelony Mar 5, 1978 z Vandenberg Space Force Base

Loading…

Następne Przeloty (najbliższe 24 godziny)

TLE

ŚwieżeSource: Space-Track

Epoka: Sep 14, 2026, 06:11 UTC

1 37655U 78026JS  26257.25820124  .00000272  00000-0  18629-3 0  9995
2 37655  99.1924 271.8276 0013584  63.9094 296.3471 14.08300577678432

Śledź DELTA 1 DEB w czasie rzeczywistym z AllMySat

Download on the App Store